Home > Weather > Fort-de-France > Past weeks

Flag for Martinique Past Weather in Fort-de-France, Martinique — Yesterday and Last 2 Weeks

Now
88 °F

Partly sunny.


Feels Like: 98 °F
Forecast: 80 / 88 °F
Wind: 18 mph from East

Location: Le Lamentin Airport

Current Time: Jul 1, 2016 at 2:53:22 PM

Latest Report: Jul 1, 2016 at 2:00 PM


Visibility: N/A

Pressure: 29.98 "Hg

Humidity: 66%

Dew Point: 75 °F

Location of Fort-de-FranceLocation

Past Weather in Fort-de-France — Graph

°F

Fort-de-France Temperature Yesterday

Maximum temperature yesterday: 88 °F (at 10:30 AM)
Minimum temperature yesterday: 77 °F (at 3:30 PM)
Average temperature yesterday: 81 °F

High & Low Weather Summary for the Past Weeks

 TemperatureHumidityPressure
High90 °F (Jun 17, 2:00 PM)94% (Jun 18, 8:30 PM)30.07 "Hg (Jun 18, 8:30 PM)
Low75 °F (Jun 28, 5:30 AM)55% (Jun 16, 2:00 PM)29.95 "Hg (Jun 18, 2:30 PM)
Average82 °F76%30.01 "Hg
* Reported Jun 16 1:00 PM — Jul 1 1:30 PM, Fort-de-France, Weather by CustomWeather, © 2016

Note: Actual official high and low records may vary slightly from our data, if they occured in-between our weather recording intervals... More about our weather records

Advertising

Fort-de-France Weather History for the Previous 24 Hours

Scroll right to see more
 ConditionsComfort  
Time TempWeatherWind HumidityBarometerVisibility
1:30 PM
Fri, Jul 1
88 °FBroken clouds.18 mph66%30.01 "HgN/A
1:00 PM86 °FBroken clouds.14 mph75%30.01 "HgN/A
12:30 PM86 °FBroken clouds.15 mph75%30.01 "HgN/A
12:00 PM86 °FBroken clouds.16 mph75%30.04 "HgN/A
11:30 AM88 °FPartly sunny.14 mph66%30.04 "HgN/A
11:00 AM88 °FBroken clouds.18 mph66%30.04 "HgN/A
10:30 AM86 °FPartly sunny.15 mph79%30.04 "HgN/A
10:00 AM84 °FPartly sunny.13 mph79%30.04 "HgN/A
9:30 AM86 °FPartly sunny.15 mph79%30.04 "HgN/A
9:00 AM81 °FLight rain. Partly sunny.17 mph84%30.04 "HgN/A
8:30 AM84 °FBroken clouds.10 mph79%30.04 "HgN/A
8:00 AM81 °FMostly cloudy.13 mph89%30.04 "Hg4 mi
7:30 AM82 °FPassing clouds.7 mph84%30.04 "HgN/A
7:00 AM81 °FPartly sunny.7 mph89%30.04 "Hg4 mi
6:30 AM77 °FPassing clouds.5 mph94%30.01 "HgN/A
6:00 AM77 °FBroken clouds.7 mph94%30.01 "HgN/A
5:30 AM79 °FHeavy rain. Partly cloudy.9 mph89%30.01 "HgN/A
5:00 AM79 °FPassing clouds.10 mph89%29.98 "HgN/A
4:30 AM79 °FPassing clouds.8 mph89%29.98 "HgN/A
4:00 AM77 °FPassing clouds.8 mph94%29.98 "HgN/A
3:30 AM77 °FClear.9 mph94%29.98 "HgN/A
3:00 AM77 °FPassing clouds.9 mph94%29.98 "HgN/A
2:30 AM79 °FLight rain. Partly cloudy.15 mph89%29.98 "Hg5 mi
2:00 AM79 °FPartly cloudy.9 mph89%29.98 "HgN/A
1:30 AM79 °FPartly cloudy.8 mph89%29.98 "HgN/A
1:00 AM79 °FPartly cloudy.6 mph89%30.01 "HgN/A
12:30 AM79 °FPartly cloudy.7 mph89%30.01 "HgN/A
12:00 AM79 °FPassing clouds.8 mph89%30.01 "HgN/A
11:30 PM
Thu, Jun 30
79 °FPassing clouds.7 mph89%30.04 "HgN/A
11:00 PM79 °FPartly cloudy.5 mph89%30.04 "HgN/A
10:30 PM77 °FPassing clouds.3 mph94%30.04 "HgN/A
10:00 PM79 °FPartly cloudy.12 mph89%30.04 "HgN/A
9:30 PM79 °FLight rain. Passing clouds.5 mph89%30.04 "HgN/A
9:00 PM79 °FPassing clouds.6 mph89%30.01 "HgN/A
8:30 PM79 °FPartly cloudy.3 mph89%30.01 "HgN/A
8:00 PM79 °FPassing clouds.7 mph89%30.01 "HgN/A
7:30 PM79 °FPassing clouds.8 mph89%30.01 "HgN/A
7:00 PM79 °FClear.8 mph84%29.98 "HgN/A
6:30 PM79 °FClear.8 mph84%29.98 "HgN/A
6:00 PM77 °FWarm.5 mph89%29.98 "HgN/A
5:30 PM79 °FLight rain. Broken clouds.15 mph84%29.98 "HgN/A
5:00 PM81 °FPartly sunny.2 mph89%29.95 "HgN/A
4:30 PM79 °FPartly sunny.6 mph89%29.95 "HgN/A
4:00 PM79 °FBroken clouds.5 mph89%29.98 "HgN/A
3:30 PM77 °FLight rain. Fog.6 mph94%29.98 "Hg1 mi
3:00 PM81 °FHeavy rain. Partly sunny.9 mph84%29.98 "Hg1 mi
2:30 PM84 °FBroken clouds.13 mph74%29.98 "Hg6 mi
2:00 PM84 °FFog.13 mph79%29.98 "Hg2 mi
Weather by CustomWeather, © 2016

See weather overviewHow to use our weather pages